Location: ??
(35.5052°N, 139.7262°E)
Time: 18:24:17
(UTC+00:00)

IDEFIX/ARIANE 42P - Pass Details

Date: 20 June 2021
Orbit: 784 x 803 km, 98.4° (Epoch: 30 July)

Event Time Altitude Azimuth Distance (km) Brightness Sun altitude
Rises 18:30:00 0° 355° (N) 3,306 6.3 -10.3°
Reaches altitude 10° 18:32:56 10° 338° (NNW) 2,369 5.3 -9.8°
Maximum altitude 18:36:33 19° 294° (WNW) 1,795 4.2 -9.2°
Drops below altitude 10° 18:40:09 10° 250° (WSW) 2,351 4.4 -8.6°
Enters shadow 18:40:19 - 249° (WSW) 2,393 4.4 -8.6°
